Regional Weather Roundup
Issued by NWS

Home | Current Version | Previous Version | Graphics & Text | Print | Product List | Glossary On
Versions: 1 2 3 4 5 6 7 8 9 10 11 12 13 14 15 16 17 18 19 20 21 22 23 24 25 26 27 28 29 30 31 32 33 34 35 36 37 38 39 40 41 42 43 44 45 46 47 48 49 50
879
ASUS44 KJAN 202210
RWRMS

MISSISSIPPI HOURLY WEATHER ROUNDUP
NATIONAL WEATHER SERVICE JACKSON MS
500 PM CDT MON OCT 20 2014

NOTE: "FAIR: INDICATES FEW OR NO CLOUDS BELOW 12,000 FEET WITH NO
SIGNIFICANT WEATHER AND/OR OBSTRUCTIONS TO VISIBILITY.

MSZ001>002-007>008-010>013-018>021-025>028-034>036-202300-
NORTHWEST MISSISSIPPI

CITY           SKY/WX    TMP DP  RH WIND       PRES   REMARKS
CLARKSDALE     FAIR      72  50  46 NW7       30.03S
CLEVELAND      FAIR      72  53  50 NW3       30.02S
GREENWOOD      SUNNY     72  48  42 NW3       30.03S
GREENVILLE     SUNNY     73  49  42 W6        30.02F
GRENADA          N/A    N/A N/A N/A MISG        N/A
OLIVE BRANCH   MOSUNNY   70  52  52 SW8       30.01F
OXFORD         FAIR      68  48  49 W5        30.04S
TUNICA         CLEAR     72  50  46 W3        30.01F
$$

MSZ003>006-009-014>017-022>024-029>033-037>039-202300-
NORTHEAST MISSISSIPPI

CITY           SKY/WX    TMP DP  RH WIND       PRES   REMARKS
COLUMBUS AFB   NOT AVBL
CORINTH        MOCLDY    70  50  49 W5        30.00F
GOLDN TRIANGLE SUNNY     75  48  38 N5        30.00F
STARKVILLE     FAIR      72  48  43 CALM      30.01S
TUPELO         MOSUNNY   72  50  45 VRB5      30.01S
$$

MSZ040-058-202300-
CENTRAL MISSISSIPPI

CITY           SKY/WX    TMP DP  RH WIND       PRES   REMARKS
JACKSON INTL   MOSUNNY   75  47  36 N5        30.01F
JACKSON HAWKNS SUNNY     75  50  41 NW7       30.02F
MERIDIAN KEY   SUNNY     74  48  39 N8        30.00F
MERIDIAN NAS   PTSUNNY   73  48  41 VRB3      30.01S
RAYMOND        FAIR      75  68  78 CALM      30.02S
VICKSBURG      SUNNY     74  46  36 NW3       30.02F
$$

MSZ059>079-202300-
SOUTH MISSISSIPPI

CITY           SKY/WX    TMP DP  RH WIND       PRES   REMARKS
BROOKHAVEN     FAIR      73  48  40 W3        30.03S
COLUMBIA         N/A    N/A N/A N/A MISG        N/A
HATTIESBURG    MOSUNNY   75  48  38 N3        30.01S
MCCOMB         MOSUNNY   75  51  43 NW3       30.01S
NATCHEZ        MOSUNNY   72  52  49 NE3       30.02F
PINE BELT      MOSUNNY   73  48  40 NE3       30.03S
$$

MSZ080>082-202300-
COASTAL MISSISSIPPI

CITY           SKY/WX    TMP DP  RH WIND       PRES   REMARKS
BAY ST LOUIS   SUNNY     75  50  41 VRB5      29.99F
BILOXI         SUNNY     77  53  43 SW7       29.99R
PASCAGOULA     SUNNY     77  53  43 CALM      29.98S
GULFPORT       MOSUNNY   78  48  34 N3        29.98S
$$



USA.gov is the U.S. government's official web portal to all federal, state and local government web resources and services.